Meriden, CT

9:50 AM EDT on March 30, 2017 (GMT -0400)
Meriden Markham Municipal

Weather History for KMMK - October, 2012

Change the Weather History Date:

Sunday, October 14, 2012

  Actual Average (KOXC) Record (KOXC)
Temperature  
Mean Temperature 57 °F -  
Max Temperature 68 °F 57 °F 75 °F (2000)
Min Temperature 46 °F 40 °F 30 °F (2006)
Degree Days  
Heating Degree Days 8    
Growing Degree Days 7 (Base 50)    
Moisture  
Dew Point 50 °F    
Average Humidity 72    
Maximum Humidity 89    
Minimum Humidity 55    
Precipitation  
Precipitation 0.00 in - - ()
Sea Level Pressure  
Sea Level Pressure 30.11 in    
Wind  
Wind Speed 6 mph (South)    
Max Wind Speed 12 mph    
Max Gust Speed 23 mph    
Visibility 10 miles    
Events Rain    
Averages and records for this station are not official NWS values.
T = Trace of Precipitation, MM = Missing Value Source: NWS Daily Summary

Daily Weather History Graph

Daily Weather History Graph

Search for Another Location

Airport or City:

Trip Planner

Search our weather history database for the weather conditions in past years. The results will help you decide how hot, cold, wet, or windy it might be!

Date:

Astronomy

Oct. 14, 2012 Rise Set
Actual Time 7:02 AM EDT 6:11 PM EDT
Civil Twilight 6:34 AM EDT 6:38 PM EDT
Nautical Twilight 6:02 AM EDT 7:11 PM EDT
Astronomical Twilight 5:30 AM EDT 7:43 PM EDT
Moon 5:58 AM EDT (10/14) 5:29 PM EDT (10/14)
Length of Visible Light 12h 04m
Length of Day
11h 08m
Waning Crescent, 1% of the Moon is Illuminated
Oct 14
Waning Crescent
Oct 15
New
Oct 21
First Quarter
Oct 29
Full
Nov 6
Last Quarter

Hourly Weather History & Observations

Time (EDT) Temp. Windchill Dew Point Humidity Pressure Visibility Wind Dir Wind Speed Gust Speed Precip Events Conditions
1:53 AM 46.9 °F - 42.1 °F 83% 30.27 in 10.0 mi Calm Calm - N/A   Clear
2:53 AM 46.0 °F 43.9 °F 43.0 °F 89% 30.24 in 10.0 mi South 4.6 mph - 0.00 in   Clear
3:53 AM 53.1 °F - 45.0 °F 74% 30.21 in 10.0 mi South 8.1 mph 16.1 mph N/A   Clear
4:53 AM 55.0 °F - 45.0 °F 69% 30.20 in 10.0 mi SSW 11.5 mph 23.0 mph N/A   Overcast
5:53 AM 55.9 °F - 45.0 °F 67% 30.19 in 10.0 mi SW 9.2 mph - N/A   Overcast
6:53 AM 54.0 °F - 46.0 °F 75% 30.19 in 10.0 mi SSW 8.1 mph - 0.00 in Rain Light Rain
7:53 AM 55.0 °F - 46.9 °F 74% 30.18 in 10.0 mi Variable 5.8 mph 16.1 mph 0.00 in   Overcast
8:53 AM 57.0 °F - 48.0 °F 72% 30.18 in 10.0 mi SW 8.1 mph - 0.00 in   Overcast
9:53 AM 57.9 °F - 48.0 °F 70% 30.17 in 10.0 mi SSW 10.4 mph - N/A   Overcast
10:53 AM 59.0 °F - 48.0 °F 67% 30.16 in 10.0 mi SSW 10.4 mph 17.3 mph N/A   Overcast
11:53 AM 61.0 °F - 48.9 °F 64% 30.14 in 10.0 mi SSW 6.9 mph 19.6 mph N/A   Overcast
12:53 PM 63.0 °F - 48.9 °F 60% 30.12 in 10.0 mi South 9.2 mph 18.4 mph N/A   Overcast
1:53 PM 64.9 °F - 50.0 °F 58% 30.09 in 10.0 mi SSW 10.4 mph 20.7 mph N/A   Overcast
2:53 PM 64.9 °F - 50.0 °F 58% 30.06 in 10.0 mi South 10.4 mph 18.4 mph N/A   Overcast
3:53 PM 66.9 °F - 51.1 °F 57% 30.04 in 10.0 mi South 8.1 mph - N/A   Mostly Cloudy
4:53 PM 68.0 °F - 51.1 °F 55% 30.03 in 10.0 mi South 9.2 mph - N/A   Clear
5:53 PM 64.0 °F - 54.0 °F 70% 30.02 in 10.0 mi South 8.1 mph - N/A   Clear
6:53 PM 62.1 °F - 54.0 °F 75% 30.02 in 10.0 mi SSE 4.6 mph - N/A   Clear
7:53 PM 61.0 °F - 54.0 °F 78% 30.02 in 10.0 mi South 4.6 mph - N/A   Clear
8:53 PM 61.0 °F - 55.0 °F 81% 30.01 in 10.0 mi South 6.9 mph - N/A   Clear
9:53 PM 61.0 °F - 55.9 °F 83% 30.00 in 10.0 mi SSE 5.8 mph - N/A   Clear
10:53 PM 61.0 °F - 57.0 °F 87% 29.99 in 10.0 mi SSE 5.8 mph - N/A   Clear
11:53 PM 62.1 °F - 57.0 °F 84% 29.96 in 10.0 mi South 8.1 mph - N/A   Clear